Le nostre stazioni meteo in Italia

Pubblicità
Il mio iltempo24.it
Geneve-Cointrin, Svizzera (6700): Temperatura & dewpoint: 16.11.2019 09:00:00 - 22.11.2019 09:00:00 (CET)Geneve-Cointrin, Svizzera (6700): Temperatura 5cm: 16.11.2019 09:00:00 - 22.11.2019 09:00:00 (CET)Geneve-Cointrin, Svizzera (6700): velocità del vento & gusts: 16.11.2019 09:00:00 - 22.11.2019 09:00:00 (CET)Geneve-Cointrin, Svizzera (6700): direzione del vento: 16.11.2019 09:00:00 - 22.11.2019 09:00:00 (CET)Geneve-Cointrin, Svizzera (6700): reduced air pressure: 16.11.2019 09:00:00 - 22.11.2019 09:00:00 (CET)Geneve-Cointrin, Svizzera (6700): visibility: 16.11.2019 09:00:00 - 22.11.2019 09:00:00 (CET)Geneve-Cointrin, Svizzera (6700): ore di luce: 16.11.2019 09:00:00 - 22.11.2019 09:00:00 (CET)Geneve-Cointrin, Svizzera (6700): precipitazioni: 16.11.2019 09:00:00 - 22.11.2019 09:00:00 (CET)
Data & Tempo tt [°C] td [°C] tt 5cm [°C] ff [km/h] ff [kn] fx [km/h] fx [kn] dd ppp [hPa] vv [km] sd [min] rr [mm]
22.11.2019 09:00:00 5,7 4,4 5,5 3 2 9 5 N 1009,5 - 0 0,0
22.11.2019 08:00:00 5,2 4,0 4,5 3 2 12 6 NO 1009,7 - 0 0,0
22.11.2019 07:00:00 4,9 3,8 4,3 5 3 12 6 E 1009,7 6 0 0,0
22.11.2019 06:00:00 5,3 4,6 4,9 5 3 8 4 NNE 1009,8 - 0 0,0
22.11.2019 05:00:00 5,2 4,9 5,0 4 2 7 4 N 1010,1 - 0 0,0
22.11.2019 04:00:00 5,2 4,9 4,9 3 1 5 3 NNE 1010,1 - 0 0,2
22.11.2019 03:00:00 5,1 4,7 4,8 2 1 5 3 NNO 1010,3 - 0 0,0
22.11.2019 02:00:00 5,1 4,7 4,8 4 2 6 3 NE 1010,0 - 0 0,0
22.11.2019 01:00:00 5,4 4,4 4,9 2 1 8 4 SSE 1010,1 - 0 0,0
22.11.2019 00:00:00 5,2 4,8 5,0 4 2 9 5 NNE 1010,3 - 0 0,1
21.11.2019 23:00:00 5,3 5,0 5,0 3 1 8 4 E 1010,5 - 0 0,3
21.11.2019 22:00:00 5,5 4,8 5,1 3 2 5 3 NNO 1010,4 8 0 0,3
21.11.2019 21:00:00 6,0 4,0 5,2 3 2 6 4 O 1010,3 - 0 0,0
21.11.2019 20:00:00 5,8 3,8 5,5 5 3 8 4 N 1009,8 - 0 0,0
21.11.2019 19:00:00 6,1 3,4 5,6 3 2 5 3 NO 1010,1 9 0 0,0
21.11.2019 18:00:00 6,1 3,1 5,5 1 0 5 3 ONO 1010,0 - 0 0,0
21.11.2019 17:00:00 6,2 3,2 5,6 3 2 6 4 N 1009,8 - 0 0,0
21.11.2019 16:00:00 6,0 3,1 5,9 2 1 11 6 NNO 1009,4 8 0 0,0
21.11.2019 15:00:00 6,0 3,3 6,3 6 4 12 7 N 1009,2 - 0 0,0
21.11.2019 14:00:00 5,6 2,9 6,0 6 4 12 6 N 1009,6 - 0 0,0
21.11.2019 13:00:00 5,7 3,0 6,1 6 4 11 6 N 1010,2 8 0 0,0
21.11.2019 12:00:00 6,0 2,9 6,0 5 3 14 8 NNO 1010,9 - 0 0,0
21.11.2019 11:00:00 5,4 2,9 5,5 4 2 10 5 N 1011,6 - 0 0,0
21.11.2019 10:00:00 5,3 3,0 5,3 5 3 10 5 NNE 1011,7 7 0 0,0
21.11.2019 09:00:00 5,1 2,8 4,9 3 1 9 5 NNE 1011,4 - 0 0,0
21.11.2019 08:00:00 4,9 2,7 4,6 4 2 8 4 NNO 1011,3 - 0 0,0
21.11.2019 07:00:00 5,1 2,6 4,6 3 1 5 3 NO 1011,2 7 0 0,0
21.11.2019 06:00:00 4,8 3,2 4,4 3 2 6 3 NO 1011,4 - 0 0,0
21.11.2019 05:00:00 4,6 3,0 4,3 3 2 7 4 NO 1011,5 - 0 0,0
21.11.2019 04:00:00 4,7 3,0 4,3 5 3 6 4 NNE 1011,7 - 0 0,0
21.11.2019 03:00:00 4,7 2,5 4,3 1 1 6 4 NNO 1012,2 - 0 0,0
21.11.2019 02:00:00 4,6 2,8 4,3 2 1 5 3 N 1012,5 - 0 0,0
21.11.2019 01:00:00 4,8 2,1 4,3 3 1 8 5 N 1012,6 - 0 0,0
21.11.2019 00:00:00 4,8 2,2 4,4 6 3 11 6 N 1012,8 - 0 0,0
20.11.2019 23:00:00 4,9 2,2 4,5 5 3 11 6 N 1012,7 - 0 0,0
20.11.2019 22:00:00 5,1 2,3 4,6 5 3 10 5 N 1012,9 16 0 0,0
20.11.2019 21:00:00 5,3 2,0 4,8 8 4 13 7 NNE 1013,0 - 0 0,0
20.11.2019 20:00:00 5,6 2,1 5,0 4 2 9 5 N 1013,2 - 0 0,0
20.11.2019 19:00:00 5,8 2,2 5,2 5 3 8 4 N 1013,2 16 0 0,0
20.11.2019 18:00:00 6,0 2,0 5,3 4 2 14 8 N 1013,3 - 0 0,0
20.11.2019 17:00:00 5,8 1,9 4,8 8 4 13 7 N 1013,4 - 19 0,0
20.11.2019 16:00:00 6,5 2,0 6,6 8 5 15 8 NE 1013,3 18 60 0,0
20.11.2019 15:00:00 6,2 1,8 9,0 4 2 14 8 N 1013,6 - 15 0,0
20.11.2019 14:00:00 6,2 1,8 7,6 9 5 22 12 NE 1014,0 - 1 0,0
20.11.2019 13:00:00 6,0 1,1 7,3 10 5 19 11 ENE 1014,4 25 0 0,0
20.11.2019 12:00:00 6,2 1,0 7,3 1 1 15 8 S 1014,8 - 0 0,0
20.11.2019 11:00:00 5,4 0,3 6,4 5 3 10 5 N 1015,7 - 0 0,0
20.11.2019 10:00:00 5,3 0,8 5,7 6 4 10 5 NNE 1015,9 25 0 0,0
20.11.2019 09:00:00 4,3 0,5 3,8 1 1 8 4 NNE 1016,2 - 0 0,0
20.11.2019 08:00:00 3,9 0,2 2,3 4 2 8 5 N 1016,3 - 0 0,0
20.11.2019 07:00:00 3,8 1,3 3,3 3 2 6 3 NNO 1016,5 20 0 0,0
20.11.2019 06:00:00 4,3 0,2 3,6 4 2 10 6 N 1016,6 - 0 0,0
20.11.2019 05:00:00 4,4 0,1 3,6 6 3 12 6 N 1016,8 - 0 0,0
20.11.2019 04:00:00 4,5 0,2 3,7 5 3 12 6 N 1017,1 - 0 0,0
20.11.2019 03:00:00 4,6 0,4 3,9 6 3 13 7 N 1017,3 - 0 0,0
20.11.2019 02:00:00 4,7 0,3 4,0 6 4 17 9 N 1017,4 - 0 0,0
20.11.2019 01:00:00 4,8 0,4 4,1 8 5 15 8 N 1017,7 - 0 0,0
20.11.2019 00:00:00 4,8 0,5 4,0 6 3 13 7 N 1018,0 - 0 0,0
19.11.2019 23:00:00 5,0 0,1 4,2 9 5 21 12 N 1017,9 - 0 0,0
19.11.2019 22:00:00 5,1 -0,1 4,4 10 5 21 11 N 1018,1 25 0 0,0
19.11.2019 21:00:00 5,1 0,3 4,3 10 6 22 12 N 1018,2 - 0 0,0
19.11.2019 20:00:00 5,0 0,7 4,2 8 5 20 11 N 1018,3 - 0 0,0
19.11.2019 19:00:00 5,1 0,5 4,3 10 5 19 10 N 1018,2 17 0 0,0
19.11.2019 18:00:00 5,5 0,9 4,6 9 5 22 12 N 1017,5 - 0 0,0
19.11.2019 17:00:00 5,4 0,7 4,1 11 6 31 17 N 1017,1 - 0 0,0
19.11.2019 16:00:00 6,6 1,0 5,7 16 9 29 16 NNE 1016,6 30 0 0,0
19.11.2019 15:00:00 7,0 1,3 7,0 19 10 33 18 NE 1016,2 - 0 0,0
19.11.2019 14:00:00 7,3 1,0 7,1 21 12 34 19 NE 1016,2 - 50 0,0
19.11.2019 13:00:00 7,5 0,9 9,5 18 10 35 19 ENE 1016,3 60 58 0,0
19.11.2019 12:00:00 7,1 1,1 8,4 18 10 36 19 NE 1016,6 - 56 0,0
19.11.2019 11:00:00 6,4 1,0 7,9 8 5 23 13 NNE 1017,2 - 44 0,0
19.11.2019 10:00:00 5,2 1,4 5,6 10 6 24 13 N 1017,4 60 59 0,0
19.11.2019 09:00:00 1,1 -0,3 -0,3 5 3 11 6 N 1017,9 - 15 0,0
19.11.2019 08:00:00 -0,7 -1,4 -2,5 5 3 9 5 NO 1017,8 - 0 0,0
19.11.2019 07:00:00 -1,1 -1,8 -3,3 2 1 6 3 OSO 1017,5 18 0 0,0
19.11.2019 06:00:00 -0,9 -1,6 -2,7 3 2 5 3 OSO 1017,3 - 0 0,0
19.11.2019 05:00:00 -0,9 -1,5 -2,5 3 2 6 3 OSO 1017,5 - 0 0,0
19.11.2019 04:00:00 -0,1 -0,9 -2,1 2 1 6 3 OSO 1017,4 - 0 0,0
19.11.2019 03:00:00 -0,3 -1,1 -1,7 5 3 8 4 O 1017,6 - 0 0,0
19.11.2019 02:00:00 0,0 -0,9 -1,5 2 1 5 3 O 1017,4 - 0 0,0
19.11.2019 01:00:00 -0,4 -1,2 -1,9 4 2 6 4 O 1017,8 - 0 0,0
19.11.2019 00:00:00 -0,3 -1,0 -2,7 4 2 13 7 O 1018,2 - 0 0,0
18.11.2019 23:00:00 0,5 -0,6 -2,8 2 1 11 6 O 1017,8 - 0 0,0
18.11.2019 22:00:00 0,9 -0,2 -1,9 3 2 13 7 NO 1017,7 50 0 0,0
18.11.2019 21:00:00 1,5 0,8 -1,2 1 1 13 7 S 1017,4 - 0 0,0
18.11.2019 20:00:00 2,4 0,7 -0,3 3 2 10 5 NO 1016,9 - 0 0,0
18.11.2019 19:00:00 3,3 1,7 1,4 3 2 9 5 NO 1015,9 50 0 0,0
18.11.2019 18:00:00 4,9 1,6 1,7 5 3 10 5 ONO 1015,1 - 0 0,0
18.11.2019 17:00:00 6,1 1,9 2,9 5 3 13 7 O 1014,5 - 34 0,0
18.11.2019 16:00:00 7,8 0,8 7,6 6 4 13 7 OSO 1014,0 50 60 0,0
18.11.2019 15:00:00 7,8 1,3 9,2 6 3 17 9 SO 1013,5 - 60 0,0
18.11.2019 14:00:00 7,8 1,2 6,5 6 4 16 9 SO 1013,1 - 56 0,0
18.11.2019 13:00:00 7,8 1,6 10,3 6 3 17 9 SSE 1013,0 50 60 0,0
18.11.2019 12:00:00 6,3 0,6 8,2 5 3 16 8 S 1013,3 - 57 0,0
18.11.2019 11:00:00 5,2 2,3 5,6 8 5 14 7 SO 1014,0 - 60 0,0
18.11.2019 10:00:00 3,8 2,0 4,2 3 2 12 7 O 1014,0 50 6 0,0
18.11.2019 09:00:00 2,8 1,7 2,7 3 2 6 3 ONO 1014,0 - 0 0,0
18.11.2019 08:00:00 2,3 1,7 1,9 4 2 7 4 OSO 1013,6 - 0 0,0
18.11.2019 07:00:00 2,2 1,4 1,7 5 3 9 5 OSO 1013,2 20 0 0,0
18.11.2019 06:00:00 2,0 1,6 1,5 4 2 8 4 ONO 1012,3 - 0 0,0
18.11.2019 05:00:00 2,2 1,7 2,0 4 2 8 4 O 1011,7 - 0 0,3
18.11.2019 04:00:00 2,3 1,8 2,1 5 3 8 5 OSO 1011,2 - 0 0,4
18.11.2019 03:00:00 2,2 1,7 2,0 4 2 8 4 OSO 1010,7 - 0 0,3
18.11.2019 02:00:00 2,3 1,7 2,0 4 2 9 5 O 1010,2 - 0 0,2
18.11.2019 01:00:00 2,4 1,7 2,1 5 3 11 6 OSO 1009,9 - 0 0,4
18.11.2019 00:00:00 2,7 2,0 2,3 6 3 14 8 OSO 1009,6 - 0 0,3
17.11.2019 23:00:00 2,7 1,9 2,3 10 5 18 10 OSO 1009,2 - 0 0,5
17.11.2019 22:00:00 3,4 2,1 2,6 10 6 18 10 OSO 1008,8 12 0 0,3
17.11.2019 21:00:00 3,1 2,0 2,5 8 4 20 11 OSO 1008,5 - 0 0,0
17.11.2019 20:00:00 3,3 2,2 2,5 4 2 16 9 O 1008,0 - 0 0,0
17.11.2019 19:00:00 3,2 2,4 2,6 10 5 19 10 S 1007,7 25 0 0,0
17.11.2019 18:00:00 3,5 3,0 3,0 5 3 15 8 O 1007,3 - 0 0,1
17.11.2019 17:00:00 3,9 3,2 3,6 10 5 15 8 SO 1006,8 - 0 0,5
17.11.2019 16:00:00 3,8 3,2 4,1 4 2 10 5 ESE 1006,4 11 0 0,1
17.11.2019 15:00:00 4,2 3,3 4,4 5 3 14 8 ESE 1006,1 - 0 0,6
17.11.2019 14:00:00 3,8 3,2 3,9 8 5 17 9 ESE 1005,9 - 0 0,7
17.11.2019 13:00:00 4,3 3,6 4,3 9 5 13 7 S 1005,6 4,9 0 0,6
17.11.2019 12:00:00 5,0 3,2 4,8 6 3 8 5 OSO 1005,9 - 0 0,6
17.11.2019 11:00:00 4,6 4,0 4,4 2 1 11 6 N 1006,3 - 0 0,7
17.11.2019 10:00:00 4,7 3,2 4,1 6 3 28 15 N 1006,4 6 0 0,3
17.11.2019 09:00:00 4,5 2,8 3,8 8 4 27 14 N 1006,6 - 0 0,0
17.11.2019 08:00:00 2,0 1,2 1,5 5 3 15 8 NNO 1007,4 - 0 0,0
17.11.2019 07:00:00 1,4 0,4 0,1 4 2 8 4 SO 1007,5 10 0 0,0
17.11.2019 06:00:00 0,5 -0,1 -0,5 3 2 8 4 O 1008,5 - 0 0,0
17.11.2019 05:00:00 0,8 0,1 0,1 5 3 8 5 O 1009,0 - 0 0,0
17.11.2019 04:00:00 0,9 0,0 -0,3 5 3 7 4 SO 1009,7 - 0 0,0
17.11.2019 03:00:00 -0,2 -0,9 -1,6 3 1 8 5 O 1010,7 - 0 0,0
17.11.2019 02:00:00 0,5 0,0 -1,4 5 3 6 4 SO 1011,2 - 0 0,0
17.11.2019 01:00:00 0,2 -0,5 -2,0 2 1 7 4 O 1011,9 - 0 0,0
17.11.2019 00:00:00 0,0 -0,4 -1,9 4 2 11 6 OSO 1012,4 - 0 0,0
16.11.2019 23:00:00 0,7 0,3 -1,7 1 1 12 6 ONO 1012,7 - 0 0,0
16.11.2019 22:00:00 1,1 0,6 -1,2 1 1 12 7 NO 1012,6 18 0 0,0
16.11.2019 21:00:00 1,1 0,3 -1,6 3 2 11 6 NNE 1012,4 - 0 0,0
16.11.2019 20:00:00 2,0 0,7 -1,1 2 1 10 5 ONO 1012,2 - 0 0,0
16.11.2019 19:00:00 2,6 0,8 0,0 5 3 11 6 ONO 1012,0 30 0 0,0
16.11.2019 18:00:00 4,1 1,8 0,2 5 3 9 5 N 1011,3 - 0 0,0
16.11.2019 17:00:00 6,0 1,8 2,4 4 2 15 8 N 1010,3 - 11 0,0
16.11.2019 16:00:00 7,9 1,1 8,5 5 3 12 6 NNE 1010,1 30 60 0,0
16.11.2019 15:00:00 8,9 1,2 10,0 5 3 17 9 ONO 1009,6 - 59 0,0
16.11.2019 14:00:00 7,8 1,4 6,6 8 5 18 10 SO 1010,0 - 37 0,0
16.11.2019 13:00:00 7,4 2,0 8,0 9 5 26 14 SO 1010,5 30 42 0,0
16.11.2019 12:00:00 6,6 2,0 6,0 20 11 29 16 SO 1011,2 - 15 0,0
16.11.2019 11:00:00 5,6 3,0 6,0 11 6 18 10 SO 1011,1 - 39 0,0
16.11.2019 10:00:00 4,6 2,7 5,2 5 3 11 6 ONO 1010,6 25 0 0,0
16.11.2019 09:00:00 4,0 2,8 3,6 6 4 13 7 OSO 1010,4 - 0 0,0

tt = Temperatura
td = dewpoint
tt 5cm = Temperatura 5cm
ff = velocità del vento
fx = gusts
dd = direzione del vento
ppp = reduced air pressure
vv = visibility
sd = ore di luce
rr = precipitazioni

Stazioni seguenti

WeatherPro
AMSI
MeteoEarth